,,,PA_Meas_PMT16A,,PR_Meas_QMR101_102,,RH_Meas_QMH101,,SR_Meas_QMS101,,TA_Meas_QMH101,,GenWind,,GenWind,
date,time,status,PA,status,PR,status,RH,status,SR,status,TA,status,DirAvg,status,SpdAvg,
2010-02-17, 00:00:04,VALID,1002.16,VALID,0,VALID,91.9293,VALID,0,VALID,23.0378,VALID,345,VALID,0,
2010-02-17, 00:01:04,VALID,1002.17,VALID,0,VALID,92.0132,VALID,0,VALID,22.9776,VALID,345,VALID,0,
2010-02-17, 00:02:04,VALID,1002.19,VALID,0,VALID,92.0285,VALID,0,VALID,22.9403,VALID,345,VALID,0,
2010-02-17, 00:03:04,VALID,1002.2,VALID,0,VALID,92.0666,VALID,0,VALID,22.9013,VALID,345,VALID,0,
2010-02-17, 00:04:04,VALID,1002.19,VALID,0,VALID,92.2879,VALID,0,VALID,22.8605,VALID,345,VALID,0,
2010-02-17, 00:05:04,VALID,1002.16,VALID,0,VALID,92.4023,VALID,0,VALID,22.9013,VALID,345,VALID,0,
2010-02-17, 00:06:04,VALID,1002.17,VALID,0,VALID,92.5397,VALID,0,VALID,22.9598,VALID,284,VALID,0.0121094,
2010-02-17, 00:07:04,VALID,1002.14,VALID,0,VALID,92.7075,VALID,0,VALID,23.0183,VALID,283,VALID,0,
2010-02-17, 00:08:04,VALID,1002.12,VALID,0,VALID,92.822,VALID,0,VALID,23.0556,VALID,283,VALID,0,
2010-02-17, 00:09:04,VALID,1002.12,VALID,0,VALID,92.822,VALID,0,VALID,23.0964,VALID,283,VALID,0,
2010-02-17, 00:10:04,VALID,1002.11,VALID,0,VALID,92.8448,VALID,0,VALID,23.1354,VALID,283,VALID,0,
2010-02-17, 00:11:04,VALID,1002.12,VALID,0,VALID,92.8067,VALID,0,VALID,23.1744,VALID,283,VALID,0,
2010-02-17, 00:12:04,VALID,1002.07,VALID,0,VALID,92.7609,VALID,0,VALID,23.1726,VALID,283,VALID,0,
2010-02-17, 00:13:04,VALID,1002.06,VALID,0,VALID,92.6999,VALID,0,VALID,23.1939,VALID,283,VALID,0,
2010-02-17, 00:14:04,VALID,1002.02,VALID,0,VALID,92.738,VALID,0,VALID,23.2134,VALID,267,VALID,0,
2010-02-17, 00:15:04,VALID,1002.02,VALID,0,VALID,92.7151,VALID,0,VALID,23.2329,VALID,260,VALID,0,
2010-02-17, 00:16:04,VALID,1002,VALID,0,VALID,92.6388,VALID,0,VALID,23.2134,VALID,260,VALID,0,
2010-02-17, 00:17:04,VALID,1002.02,VALID,0,VALID,92.5778,VALID,0,VALID,23.1939,VALID,260,VALID,0,
2010-02-17, 00:18:04,VALID,1001.99,VALID,0,VALID,92.6465,VALID,0,VALID,23.1939,VALID,260,VALID,0,
2010-02-17, 00:19:04,VALID,1001.99,VALID,0,VALID,92.7075,VALID,0,VALID,23.2134,VALID,260,VALID,0,
2010-02-17, 00:20:04,VALID,1001.97,VALID,0,VALID,92.677,VALID,0,VALID,23.2329,VALID,260,VALID,0,
2010-02-17, 00:21:04,VALID,1001.95,VALID,0,VALID,92.677,VALID,0,VALID,23.2117,VALID,260,VALID,0,
2010-02-17, 00:22:04,VALID,1001.91,VALID,0,VALID,92.5015,VALID,0,VALID,23.2134,VALID,260,VALID,0,
2010-02-17, 00:23:04,VALID,1001.89,VALID,0,VALID,92.3031,VALID,0,VALID,23.1354,VALID,260,VALID,0,
2010-02-17, 00:24:04,VALID,1001.86,VALID,0,VALID,92.0361,VALID,0,VALID,23.0378,VALID,260,VALID,0,
2010-02-17, 00:25:04,VALID,1001.83,VALID,0,VALID,92.4786,VALID,0,VALID,23.0183,VALID,260,VALID,0,
2010-02-17, 00:26:04,VALID,1001.8,VALID,0,VALID,92.7457,VALID,0,VALID,23.0556,VALID,260,VALID,0,
2010-02-17, 00:27:04,VALID,1001.85,VALID,0,VALID,92.7151,VALID,0,VALID,23.0964,VALID,260,VALID,0,
2010-02-17, 00:28:04,VALID,1001.79,VALID,0,VALID,92.7762,VALID,0,VALID,23.0946,VALID,260,VALID,0,
2010-02-17, 00:29:04,VALID,1001.79,VALID,0,VALID,92.6312,VALID,0,VALID,23.0751,VALID,260,VALID,0,
2010-02-17, 00:30:04,VALID,1001.8,VALID,0,VALID,92.4023,VALID,0,VALID,23.0361,VALID,260,VALID,0,
2010-02-17, 00:31:04,VALID,1001.79,VALID,0,VALID,92.5854,VALID,0,VALID,23.0183,VALID,260,VALID,0,
2010-02-17, 00:32:04,VALID,1001.79,VALID,0,VALID,92.8448,VALID,0,VALID,23.0769,VALID,237,VALID,0,
2010-02-17, 00:33:04,VALID,1001.81,VALID,0,VALID,92.6617,VALID,0,VALID,23.0361,VALID,129,VALID,0.738672,
2010-02-17, 00:34:04,VALID,1001.8,VALID,0,VALID,92.616,VALID,0,VALID,22.9776,VALID,129,VALID,0.663672,
2010-02-17, 00:35:04,VALID,1001.82,VALID,0,VALID,92.7991,VALID,0,VALID,23.0378,VALID,129,VALID,0.845703,
2010-02-17, 00:36:04,VALID,1001.81,VALID,0,VALID,92.7609,VALID,0,VALID,23.0573,VALID,129,VALID,1.17109,
2010-02-17, 00:37:04,VALID,1001.84,VALID,0,VALID,92.5626,VALID,0,VALID,23.0378,VALID,130,VALID,1.17539,
2010-02-17, 00:38:04,VALID,1001.85,VALID,0,VALID,92.4786,VALID,0,VALID,22.9988,VALID,125,VALID,1.29023,
2010-02-17, 00:39:04,VALID,1001.88,VALID,0,VALID,92.4939,VALID,0,VALID,22.9988,VALID,124,VALID,1.21758,
2010-02-17, 00:40:04,VALID,1001.86,VALID,0,VALID,92.6312,VALID,0,VALID,22.9988,VALID,125,VALID,1.15781,
2010-02-17, 00:41:04,VALID,1001.85,VALID,0,VALID,92.6999,VALID,0,VALID,23.0166,VALID,125,VALID,1.09453,
2010-02-17, 00:42:04,VALID,1001.87,VALID,0,VALID,92.6312,VALID,0,VALID,23.0166,VALID,128,VALID,1.04688,
2010-02-17, 00:43:04,VALID,1001.84,VALID,0,VALID,92.6007,VALID,0,VALID,23.0378,VALID,128,VALID,0.767187,
2010-02-17, 00:44:04,VALID,1001.82,VALID,0,VALID,92.5931,VALID,0,VALID,23.0166,VALID,128,VALID,0.581641,
2010-02-17, 00:45:04,VALID,1001.78,VALID,0,VALID,92.5854,VALID,0.112286,VALID,23.0166,VALID,128,VALID,0.289844,
2010-02-17, 00:46:04,VALID,1001.76,VALID,0,VALID,92.5549,VALID,0,VALID,23.0166,VALID,128,VALID,0.0195313,
2010-02-17, 00:47:04,VALID,1001.75,VALID,0,VALID,92.5397,VALID,0,VALID,23.0183,VALID,128,VALID,0,
2010-02-17, 00:48:04,VALID,1001.78,VALID,0,VALID,92.4634,VALID,0,VALID,22.9988,VALID,128,VALID,0,
2010-02-17, 00:49:04,VALID,1001.73,VALID,0,VALID,92.4252,VALID,0,VALID,22.9793,VALID,128,VALID,0,
2010-02-17, 00:50:04,VALID,1001.74,VALID,0,VALID,92.41,VALID,0,VALID,22.9598,VALID,128,VALID,0,
2010-02-17, 00:51:04,VALID,1001.73,VALID,0,VALID,92.4328,VALID,0,VALID,22.9403,VALID,128,VALID,0,
2010-02-17, 00:52:04,VALID,1001.75,VALID,0,VALID,92.4328,VALID,0,VALID,22.9403,VALID,128,VALID,0,
2010-02-17, 00:53:04,VALID,1001.75,VALID,0,VALID,92.5397,VALID,0,VALID,22.9598,VALID,128,VALID,0,
2010-02-17, 00:54:04,VALID,1001.73,VALID,0,VALID,92.5397,VALID,0,VALID,22.9598,VALID,128,VALID,0,
2010-02-17, 00:55:04,VALID,1001.76,VALID,0,VALID,92.616,VALID,0,VALID,22.9793,VALID,128,VALID,0,
2010-02-17, 00:56:04,VALID,1001.77,VALID,0,VALID,92.738,VALID,0,VALID,23.0166,VALID,128,VALID,0,
2010-02-17, 00:57:04,VALID,1001.75,VALID,0,VALID,92.8448,VALID,0,VALID,23.0964,VALID,128,VALID,0,
2010-02-17, 00:58:04,VALID,1001.75,VALID,0,VALID,92.8296,VALID,0,VALID,23.1159,VALID,128,VALID,0,
2010-02-17, 00:59:04,VALID,1001.77,VALID,0,VALID,92.7228,VALID,0,VALID,23.1159,VALID,128,VALID,0,
2010-02-17, 01:00:04,VALID,1001.74,VALID,0,VALID,92.7685,VALID,0,VALID,23.1141,VALID,129,VALID,0,
2010-02-17, 01:01:04,VALID,1001.74,VALID,0,VALID,92.822,VALID,0,VALID,23.1939,VALID,131,VALID,0,
2010-02-17, 01:02:04,VALID,1001.69,VALID,0,VALID,92.7685,VALID,0,VALID,23.1921,VALID,131,VALID,0,
2010-02-17, 01:03:04,VALID,1001.71,VALID,0,VALID,92.7914,VALID,0,VALID,23.2524,VALID,140,VALID,0,
2010-02-17, 01:04:04,VALID,1001.69,VALID,0,VALID,92.7075,VALID,0,VALID,23.2915,VALID,145,VALID,0,
2010-02-17, 01:05:04,VALID,1001.71,VALID,0,VALID,92.5854,VALID,0,VALID,23.3305,VALID,145,VALID,0,
2010-02-17, 01:06:04,VALID,1001.71,VALID,0,VALID,92.5397,VALID,0,VALID,23.3305,VALID,145,VALID,0,
2010-02-17, 01:07:04,VALID,1001.67,VALID,0,VALID,92.4481,VALID,0,VALID,23.3695,VALID,145,VALID,0,
2010-02-17, 01:08:04,VALID,1001.66,VALID,0,VALID,92.3413,VALID,0,VALID,23.389,VALID,145,VALID,0,
2010-02-17, 01:09:04,VALID,1001.65,VALID,0,VALID,92.265,VALID,0,VALID,23.4085,VALID,145,VALID,0,
2010-02-17, 01:10:04,VALID,1001.6,VALID,0,VALID,92.1429,VALID,0,VALID,23.4085,VALID,145,VALID,0,
2010-02-17, 01:11:04,VALID,1001.56,VALID,0,VALID,92.0666,VALID,0,VALID,23.428,VALID,145,VALID,0,
2010-02-17, 01:12:04,VALID,1001.54,VALID,0,VALID,92.059,VALID,0,VALID,23.428,VALID,145,VALID,0,
2010-02-17, 01:13:04,VALID,1001.53,VALID,0,VALID,91.9751,VALID,0,VALID,23.428,VALID,145,VALID,0,
2010-02-17, 01:14:04,VALID,1001.5,VALID,0,VALID,91.9064,VALID,0,VALID,23.428,VALID,145,VALID,0,
2010-02-17, 01:15:04,VALID,1001.49,VALID,0,VALID,91.8148,VALID,0.112286,VALID,23.4475,VALID,145,VALID,0,
2010-02-17, 01:16:04,VALID,1001.5,VALID,0,VALID,91.6241,VALID,0,VALID,23.4067,VALID,145,VALID,0,
2010-02-17, 01:17:04,VALID,1001.48,VALID,0,VALID,91.5707,VALID,0,VALID,23.4085,VALID,145,VALID,0,
2010-02-17, 01:18:04,VALID,1001.5,VALID,0,VALID,91.6317,VALID,0,VALID,23.428,VALID,91,VALID,0.626953,
2010-02-17, 01:19:04,VALID,1001.46,VALID,0,VALID,91.708,VALID,0,VALID,23.3872,VALID,90,VALID,0.803125,
2010-02-17, 01:20:04,VALID,1001.44,VALID,0,VALID,91.708,VALID,0,VALID,23.428,VALID,78,VALID,0.425,
2010-02-17, 01:21:04,VALID,1001.42,VALID,0,VALID,91.7691,VALID,0,VALID,23.4067,VALID,78,VALID,0,
2010-02-17, 01:22:04,VALID,1001.44,VALID,0,VALID,91.7157,VALID,0,VALID,23.428,VALID,78,VALID,0,
2010-02-17, 01:23:04,VALID,1001.42,VALID,0,VALID,91.7691,VALID,0,VALID,23.4475,VALID,127,VALID,0.587891,
2010-02-17, 01:24:04,VALID,1001.4,VALID,0,VALID,91.8454,VALID,0,VALID,23.4671,VALID,127,VALID,0.623828,
2010-02-17, 01:25:04,VALID,1001.39,VALID,0,VALID,91.7233,VALID,0,VALID,23.4671,VALID,127,VALID,0.521094,
2010-02-17, 01:26:04,VALID,1001.37,VALID,0,VALID,91.5631,VALID,0,VALID,23.4475,VALID,97,VALID,0.576172,
2010-02-17, 01:27:04,VALID,1001.33,VALID,0,VALID,91.5707,VALID,0,VALID,23.428,VALID,97,VALID,0.535547,
2010-02-17, 01:28:04,VALID,1001.31,VALID,0,VALID,91.586,VALID,0,VALID,23.428,VALID,97,VALID,0.383984,
2010-02-17, 01:29:04,VALID,1001.27,VALID,0,VALID,91.4563,VALID,0,VALID,23.4085,VALID,97,VALID,0.402734,
2010-02-17, 01:30:04,VALID,1001.23,VALID,0,VALID,91.3647,VALID,0.112286,VALID,23.3695,VALID,97,VALID,0,
2010-02-17, 01:31:04,VALID,1001.18,VALID,0,VALID,91.3342,VALID,0,VALID,23.3092,VALID,97,VALID,0,
2010-02-17, 01:32:04,VALID,1001.19,VALID,0,VALID,91.3418,VALID,0,VALID,23.2915,VALID,97,VALID,0,
2010-02-17, 01:33:04,VALID,1001.19,VALID,0,VALID,91.3113,VALID,0,VALID,23.2524,VALID,97,VALID,0,
2010-02-17, 01:34:04,VALID,1001.14,VALID,0,VALID,91.3876,VALID,0,VALID,23.2329,VALID,97,VALID,0,
2010-02-17, 01:35:04,VALID,1001.13,VALID,0,VALID,91.4639,VALID,0,VALID,23.2134,VALID,97,VALID,0,
2010-02-17, 01:36:04,VALID,1001.14,VALID,0,VALID,91.5097,VALID,0,VALID,23.1939,VALID,97,VALID,0,
2010-02-17, 01:37:04,VALID,1001.11,VALID,0,VALID,91.6394,VALID,0,VALID,23.1744,VALID,97,VALID,0,
2010-02-17, 01:38:04,VALID,1001.11,VALID,0,VALID,91.7157,VALID,0,VALID,23.1531,VALID,56,VALID,0,
2010-02-17, 01:39:04,VALID,1001.09,VALID,0,VALID,91.6851,VALID,0,VALID,23.1549,VALID,41,VALID,0,
2010-02-17, 01:40:04,VALID,1001.1,VALID,0,VALID,91.792,VALID,0,VALID,23.1354,VALID,38,VALID,0,
2010-02-17, 01:41:04,VALID,1001.11,VALID,0,VALID,91.7309,VALID,0,VALID,23.1159,VALID,38,VALID,0,
2010-02-17, 01:42:04,VALID,1001.09,VALID,0,VALID,91.7767,VALID,0,VALID,23.0964,VALID,38,VALID,0,
2010-02-17, 01:43:04,VALID,1001.1,VALID,0,VALID,91.914,VALID,0,VALID,23.0769,VALID,38,VALID,0,
2010-02-17, 01:44:04,VALID,1001.1,VALID,0,VALID,91.7157,VALID,0,VALID,23.0591,VALID,38,VALID,0,
2010-02-17, 01:45:04,VALID,1001.07,VALID,0,VALID,91.9445,VALID,0,VALID,23.0183,VALID,38,VALID,0,
2010-02-17, 01:46:04,VALID,1001.05,VALID,0,VALID,92.1124,VALID,0,VALID,23.0183,VALID,38,VALID,0,
2010-02-17, 01:47:04,VALID,1001.02,VALID,0,VALID,92.1963,VALID,0,VALID,23.0573,VALID,38,VALID,0,
2010-02-17, 01:48:04,VALID,1001,VALID,0,VALID,92.2421,VALID,0,VALID,23.0573,VALID,38,VALID,0,
2010-02-17, 01:49:04,VALID,1001.01,VALID,0,VALID,92.2116,VALID,0,VALID,23.0573,VALID,38,VALID,0,
2010-02-17, 01:50:04,VALID,1001.02,VALID,0,VALID,92.1887,VALID,0,VALID,23.0573,VALID,38,VALID,0,
2010-02-17, 01:51:04,VALID,1001.03,VALID,0,VALID,92.1353,VALID,0,VALID,23.0378,VALID,38,VALID,0,
2010-02-17, 01:52:04,VALID,1001.03,VALID,0,VALID,92.1124,VALID,0,VALID,23.0183,VALID,38,VALID,0,
2010-02-17, 01:53:04,VALID,1001.05,VALID,0,VALID,92.1124,VALID,0,VALID,22.9988,VALID,38,VALID,0,
2010-02-17, 01:54:04,VALID,1001.06,VALID,0,VALID,92.1506,VALID,0,VALID,22.9988,VALID,38,VALID,0,
2010-02-17, 01:55:04,VALID,1001.08,VALID,0,VALID,92.2345,VALID,0,VALID,22.9988,VALID,38,VALID,0,
2010-02-17, 01:56:04,VALID,1001.07,VALID,0,VALID,92.3108,VALID,0,VALID,22.9988,VALID,38,VALID,0,
2010-02-17, 01:57:04,VALID,1001.08,VALID,0,VALID,92.3794,VALID,0,VALID,23.0378,VALID,38,VALID,0,
2010-02-17, 01:58:04,VALID,1001.1,VALID,0,VALID,92.4557,VALID,0,VALID,23.0573,VALID,38,VALID,0,
2010-02-17, 01:59:04,VALID,1001.05,VALID,0,VALID,92.4939,VALID,0,VALID,23.0769,VALID,38,VALID,0,
2010-02-17, 02:00:04,VALID,1001.07,VALID,0,VALID,92.5626,VALID,0,VALID,23.1159,VALID,38,VALID,0,
2010-02-17, 02:01:04,VALID,1001.02,VALID,0,VALID,92.5397,VALID,0,VALID,23.1549,VALID,158,VALID,0,
2010-02-17, 02:02:04,VALID,1001.08,VALID,0,VALID,92.6007,VALID,0,VALID,23.1744,VALID,165,VALID,0,
2010-02-17, 02:03:04,VALID,1001.07,VALID,0,VALID,92.5854,VALID,0,VALID,23.1939,VALID,165,VALID,0,
2010-02-17, 02:04:04,VALID,1001.04,VALID,0,VALID,92.6083,VALID,0,VALID,23.2329,VALID,164,VALID,0,
2010-02-17, 02:05:04,VALID,1001.04,VALID,0,VALID,92.5626,VALID,0,VALID,23.2524,VALID,163,VALID,0,
2010-02-17, 02:06:04,VALID,1001.02,VALID,0,VALID,92.5397,VALID,0,VALID,23.2524,VALID,163,VALID,0,
2010-02-17, 02:07:04,VALID,1001,VALID,0,VALID,92.4863,VALID,0,VALID,23.2719,VALID,163,VALID,0,
2010-02-17, 02:08:04,VALID,1000.99,VALID,0,VALID,92.4863,VALID,0,VALID,23.2915,VALID,163,VALID,0,
2010-02-17, 02:09:04,VALID,1000.97,VALID,0,VALID,92.4405,VALID,0,VALID,23.2915,VALID,163,VALID,0,
2010-02-17, 02:10:04,VALID,1000.97,VALID,0,VALID,92.4405,VALID,0,VALID,23.2915,VALID,163,VALID,0,
2010-02-17, 02:11:04,VALID,1000.94,VALID,0,VALID,92.4557,VALID,0,VALID,23.2915,VALID,163,VALID,0,
2010-02-17, 02:12:04,VALID,1000.91,VALID,0,VALID,92.3642,VALID,0,VALID,23.311,VALID,163,VALID,0,
2010-02-17, 02:13:04,VALID,1000.93,VALID,0,VALID,92.2574,VALID,0,VALID,23.2915,VALID,163,VALID,0,
2010-02-17, 02:14:04,VALID,1000.91,VALID,0,VALID,92.1887,VALID,0,VALID,23.2524,VALID,163,VALID,0,
2010-02-17, 02:15:04,VALID,1000.9,VALID,0,VALID,92.2421,VALID,0,VALID,23.2524,VALID,163,VALID,0,
2010-02-17, 02:16:04,VALID,1000.94,VALID,0,VALID,92.2192,VALID,0,VALID,23.2329,VALID,163,VALID,0,
2010-02-17, 02:17:04,VALID,1000.94,VALID,0,VALID,92.2192,VALID,0,VALID,23.1921,VALID,163,VALID,0,
2010-02-17, 02:18:05,VALID,1000.96,VALID,0,VALID,92.1811,VALID,0,VALID,23.1939,VALID,163,VALID,0,
2010-02-17, 02:19:05,VALID,1000.91,VALID,0,VALID,92.1963,VALID,0,VALID,23.1531,VALID,163,VALID,0,
2010-02-17, 02:20:05,VALID,1000.96,VALID,0,VALID,92.1963,VALID,0,VALID,23.1354,VALID,163,VALID,0,
2010-02-17, 02:21:05,VALID,1000.94,VALID,0,VALID,92.265,VALID,0,VALID,23.1354,VALID,163,VALID,0,
2010-02-17, 02:22:05,VALID,1000.97,VALID,0,VALID,92.2268,VALID,0,VALID,23.1159,VALID,163,VALID,0,
2010-02-17, 02:23:05,VALID,1000.97,VALID,0,VALID,92.1963,VALID,0,VALID,23.0964,VALID,163,VALID,0,
2010-02-17, 02:24:05,VALID,1000.99,VALID,0,VALID,92.3337,VALID,0,VALID,23.0769,VALID,152,VALID,0,
2010-02-17, 02:25:05,VALID,1000.99,VALID,0,VALID,92.5626,VALID,0,VALID,23.0946,VALID,141,VALID,0,
2010-02-17, 02:26:05,VALID,1001.05,VALID,0,VALID,92.6846,VALID,0,VALID,23.1726,VALID,136,VALID,0,
2010-02-17, 02:27:05,VALID,1001.01,VALID,0,VALID,92.6541,VALID,0,VALID,23.2312,VALID,136,VALID,0.0417969,
2010-02-17, 02:28:05,VALID,1001.04,VALID,0,VALID,92.5091,VALID,0,VALID,23.2524,VALID,145,VALID,1.1832,
2010-02-17, 02:29:05,VALID,1001.07,VALID,0,VALID,92.3184,VALID,0,VALID,23.2524,VALID,140,VALID,1.22656,
2010-02-17, 02:30:05,VALID,1001.08,VALID,0,VALID,92.3108,VALID,0,VALID,23.2719,VALID,140,VALID,1.00273,
2010-02-17, 02:31:05,VALID,1001.03,VALID,0,VALID,92.3566,VALID,0,VALID,23.2897,VALID,140,VALID,1.12461,
2010-02-17, 02:32:05,VALID,1001.05,VALID,0,VALID,92.2955,VALID,0,VALID,23.3092,VALID,139,VALID,0.926562,
2010-02-17, 02:33:05,VALID,1001.03,VALID,0,VALID,92.2574,VALID,0,VALID,23.3482,VALID,141,VALID,0.594531,
2010-02-17, 02:34:05,VALID,1001.04,VALID,0,VALID,92.2421,VALID,0,VALID,23.3908,VALID,151,VALID,0.827344,
2010-02-17, 02:35:05,VALID,1001.02,VALID,0,VALID,92.2497,VALID,0,VALID,23.4085,VALID,167,VALID,0.867969,
2010-02-17, 02:36:05,VALID,1001.02,VALID,0,VALID,92.2421,VALID,0,VALID,23.4475,VALID,168,VALID,0.636719,
2010-02-17, 02:37:05,VALID,1001.01,VALID,0,VALID,92.1963,VALID,0,VALID,23.4653,VALID,170,VALID,0.560938,
2010-02-17, 02:38:05,VALID,1001.03,VALID,0,VALID,92.12,VALID,0,VALID,23.5061,VALID,171,VALID,0.629297,
2010-02-17, 02:39:05,VALID,1000.99,VALID,0,VALID,92.0132,VALID,0,VALID,23.5256,VALID,171,VALID,0.672656,
2010-02-17, 02:40:05,VALID,1001.03,VALID,0,VALID,91.9064,VALID,0,VALID,23.5238,VALID,169,VALID,0.880469,
2010-02-17, 02:41:05,VALID,1001.03,VALID,0,VALID,91.7691,VALID,0,VALID,23.5841,VALID,161,VALID,0.794922,
2010-02-17, 02:42:05,VALID,1001.02,VALID,0,VALID,91.7614,VALID,0,VALID,23.5628,VALID,154,VALID,0.684766,
2010-02-17, 02:43:05,VALID,1000.97,VALID,0,VALID,91.5936,VALID,0,VALID,23.6232,VALID,155,VALID,0.3375,
2010-02-17, 02:44:05,VALID,1000.96,VALID,0,VALID,91.4334,VALID,0,VALID,23.6214,VALID,155,VALID,0,
2010-02-17, 02:45:05,VALID,1000.93,VALID,0,VALID,91.3723,VALID,0.112286,VALID,23.6232,VALID,155,VALID,0,
2010-02-17, 02:46:05,VALID,1000.89,VALID,0,VALID,91.3266,VALID,0,VALID,23.6427,VALID,155,VALID,0,
2010-02-17, 02:47:05,VALID,1000.86,VALID,0,VALID,91.2655,VALID,0,VALID,23.6409,VALID,155,VALID,0,
2010-02-17, 02:48:05,VALID,1000.84,VALID,0,VALID,91.1816,VALID,0,VALID,23.6622,VALID,155,VALID,0,
2010-02-17, 02:49:05,VALID,1000.85,VALID,0,VALID,91.0824,VALID,0,VALID,23.6622,VALID,155,VALID,0,
2010-02-17, 02:50:05,VALID,1000.84,VALID,0,VALID,90.9069,VALID,0,VALID,23.6427,VALID,155,VALID,0,
2010-02-17, 02:51:05,VALID,1000.87,VALID,0,VALID,90.8611,VALID,0,VALID,23.6427,VALID,147,VALID,0,
2010-02-17, 02:52:05,VALID,1000.87,VALID,0,VALID,90.7772,VALID,0,VALID,23.6427,VALID,130,VALID,0,
2010-02-17, 02:53:05,VALID,1000.87,VALID,0,VALID,90.678,VALID,0,VALID,23.6036,VALID,129,VALID,0,
2010-02-17, 02:54:05,VALID,1000.85,VALID,0,VALID,90.6323,VALID,0,VALID,23.5646,VALID,129,VALID,0,
2010-02-17, 02:55:05,VALID,1000.86,VALID,0,VALID,90.6094,VALID,0,VALID,23.5256,VALID,129,VALID,0,
2010-02-17, 02:56:05,VALID,1000.87,VALID,0,VALID,90.5712,VALID,0,VALID,23.4866,VALID,129,VALID,0,
2010-02-17, 02:57:05,VALID,1000.9,VALID,0,VALID,90.5865,VALID,0,VALID,23.4067,VALID,129,VALID,0,
2010-02-17, 02:58:05,VALID,1000.89,VALID,0,VALID,90.7162,VALID,0,VALID,23.389,VALID,117,VALID,0.997656,
2010-02-17, 02:59:04,VALID,1000.92,VALID,0,VALID,90.9603,VALID,0,VALID,23.3695,VALID,121,VALID,1.07187,
2010-02-17, 03:00:05,VALID,1000.95,VALID,0,VALID,91.1511,VALID,0,VALID,23.35,VALID,116,VALID,1.03555,
2010-02-17, 03:01:05,VALID,1000.97,VALID,0,VALID,91.1892,VALID,0,VALID,23.3305,VALID,118,VALID,0.9125,
2010-02-17, 03:02:05,VALID,1000.97,VALID,0,VALID,91.2503,VALID,0,VALID,23.311,VALID,120,VALID,0.764063,
2010-02-17, 03:03:05,VALID,1001,VALID,0,VALID,91.3494,VALID,0,VALID,23.2719,VALID,118,VALID,0.864453,
2010-02-17, 03:04:05,VALID,1000.99,VALID,0,VALID,91.4868,VALID,0,VALID,23.2719,VALID,113,VALID,0.653906,
2010-02-17, 03:05:05,VALID,1001.04,VALID,0,VALID,91.5249,VALID,0,VALID,23.2507,VALID,112,VALID,0.676172,
2010-02-17, 03:06:05,VALID,1001.02,VALID,0,VALID,91.5631,VALID,0,VALID,23.2312,VALID,110,VALID,0.761328,
2010-02-17, 03:07:05,VALID,1001.06,VALID,0,VALID,91.6928,VALID,0,VALID,23.2524,VALID,111,VALID,0.902734,
2010-02-17, 03:08:05,VALID,1001.02,VALID,0,VALID,91.7614,VALID,0,VALID,23.2329,VALID,112,VALID,0.703516,
2010-02-17, 03:09:05,VALID,1001,VALID,0,VALID,91.7843,VALID,0,VALID,23.2329,VALID,113,VALID,0.451562,
2010-02-17, 03:10:05,VALID,1001.02,VALID,0,VALID,91.7538,VALID,0,VALID,23.2134,VALID,113,VALID,0.103125,
2010-02-17, 03:11:05,VALID,1001.02,VALID,0,VALID,91.7233,VALID,0,VALID,23.1939,VALID,113,VALID,0,
2010-02-17, 03:12:05,VALID,1001,VALID,0,VALID,91.7614,VALID,0,VALID,23.1549,VALID,113,VALID,0,
2010-02-17, 03:13:05,VALID,1001,VALID,0,VALID,91.853,VALID,0,VALID,23.1744,VALID,113,VALID,0,
2010-02-17, 03:14:05,VALID,1000.94,VALID,0,VALID,91.8911,VALID,0,VALID,23.1531,VALID,113,VALID,0,
2010-02-17, 03:15:05,VALID,1000.99,VALID,0,VALID,91.9445,VALID,0,VALID,23.1549,VALID,113,VALID,0,
2010-02-17, 03:16:05,VALID,1000.97,VALID,0,VALID,92.1048,VALID,0,VALID,23.1744,VALID,113,VALID,0,
2010-02-17, 03:17:05,VALID,1000.96,VALID,0,VALID,92.2192,VALID,0,VALID,23.1939,VALID,113,VALID,0,
2010-02-17, 03:18:05,VALID,1000.92,VALID,0,VALID,92.3031,VALID,0,VALID,23.2329,VALID,113,VALID,0,
2010-02-17, 03:19:05,VALID,1000.91,VALID,0,VALID,92.2803,VALID,0,VALID,23.2117,VALID,113,VALID,0,
2010-02-17, 03:20:05,VALID,1000.91,VALID,0,VALID,92.2345,VALID,0,VALID,23.2329,VALID,113,VALID,0,
2010-02-17, 03:21:05,VALID,1000.9,VALID,0,VALID,92.0971,VALID,0,VALID,23.2329,VALID,113,VALID,0,
2010-02-17, 03:22:05,VALID,1000.93,VALID,0,VALID,92.1506,VALID,0,VALID,23.1921,VALID,113,VALID,0,
2010-02-17, 03:23:05,VALID,1000.94,VALID,0,VALID,92.1582,VALID,0.112286,VALID,23.1921,VALID,113,VALID,0,
2010-02-17, 03:24:05,VALID,1000.93,VALID,0,VALID,92.12,VALID,0,VALID,23.2134,VALID,113,VALID,0,
2010-02-17, 03:25:05,VALID,1000.93,VALID,0,VALID,92.0895,VALID,0,VALID,23.1549,VALID,113,VALID,0,
2010-02-17, 03:26:05,VALID,1000.91,VALID,0,VALID,92.204,VALID,0,VALID,23.1744,VALID,230,VALID,0,
2010-02-17, 03:27:05,VALID,1000.89,VALID,0,VALID,92.2726,VALID,0,VALID,23.1726,VALID,230,VALID,0,
2010-02-17, 03:28:05,VALID,1000.92,VALID,0,VALID,92.2726,VALID,0,VALID,23.1744,VALID,230,VALID,0,
2010-02-17, 03:29:05,VALID,1000.89,VALID,0,VALID,92.265,VALID,0,VALID,23.1744,VALID,230,VALID,0,
2010-02-17, 03:30:05,VALID,1000.92,VALID,0,VALID,92.3184,VALID,0,VALID,23.1549,VALID,230,VALID,0,
2010-02-17, 03:31:05,VALID,1000.94,VALID,0,VALID,92.3108,VALID,0,VALID,23.1762,VALID,230,VALID,0,
2010-02-17, 03:32:05,VALID,1000.94,VALID,0,VALID,92.2879,VALID,0,VALID,23.1762,VALID,230,VALID,0,
2010-02-17, 03:33:05,VALID,1000.93,VALID,0,VALID,92.2726,VALID,0,VALID,23.1566,VALID,230,VALID,0,
2010-02-17, 03:34:05,VALID,1000.92,VALID,0,VALID,92.2803,VALID,0,VALID,23.1176,VALID,230,VALID,0,
2010-02-17, 03:35:05,VALID,1000.91,VALID,0,VALID,92.2574,VALID,0,VALID,23.0769,VALID,230,VALID,0,
2010-02-17, 03:36:05,VALID,1000.95,VALID,0,VALID,92.3184,VALID,0,VALID,23.0769,VALID,230,VALID,0,
2010-02-17, 03:37:05,VALID,1000.96,VALID,0,VALID,92.3489,VALID,0,VALID,23.0981,VALID,230,VALID,0,
2010-02-17, 03:38:05,VALID,1000.98,VALID,0,VALID,92.326,VALID,0,VALID,23.0786,VALID,230,VALID,0,
2010-02-17, 03:39:05,VALID,1001,VALID,0,VALID,92.3566,VALID,0,VALID,23.0573,VALID,230,VALID,0,
2010-02-17, 03:40:05,VALID,1000.97,VALID,0,VALID,92.4252,VALID,0,VALID,23.0573,VALID,230,VALID,0,
2010-02-17, 03:41:05,VALID,1000.98,VALID,0,VALID,92.4634,VALID,0,VALID,23.0573,VALID,230,VALID,0,
2010-02-17, 03:42:05,VALID,1000.99,VALID,0,VALID,92.4634,VALID,0,VALID,23.0573,VALID,229,VALID,0,
2010-02-17, 03:43:05,VALID,1001,VALID,0,VALID,92.5473,VALID,0,VALID,23.0769,VALID,229,VALID,0,
2010-02-17, 03:44:05,VALID,1001.04,VALID,0,VALID,92.616,VALID,0,VALID,23.0964,VALID,230,VALID,0,
2010-02-17, 03:45:05,VALID,1001.02,VALID,0,VALID,92.6236,VALID,0.112286,VALID,23.1141,VALID,230,VALID,0,
2010-02-17, 03:46:05,VALID,1001.03,VALID,0,VALID,92.4405,VALID,0,VALID,23.0946,VALID,230,VALID,0,
2010-02-17, 03:47:05,VALID,1001.08,VALID,0,VALID,92.4328,VALID,0.112286,VALID,23.0751,VALID,230,VALID,0,
2010-02-17, 03:48:05,VALID,1001.05,VALID,0,VALID,92.4634,VALID,0.112286,VALID,23.0361,VALID,230,VALID,0,
2010-02-17, 03:49:05,VALID,1001.04,VALID,0,VALID,92.471,VALID,0,VALID,23.0361,VALID,230,VALID,0,
2010-02-17, 03:50:05,VALID,1001.03,VALID,0,VALID,92.6083,VALID,0,VALID,23.0769,VALID,230,VALID,0,
2010-02-17, 03:51:05,VALID,1001.02,VALID,0,VALID,92.616,VALID,0,VALID,23.0769,VALID,230,VALID,0,
2010-02-17, 03:52:05,VALID,1001.04,VALID,0,VALID,92.5778,VALID,0,VALID,23.0769,VALID,230,VALID,0,
2010-02-17, 03:53:05,VALID,1001.03,VALID,0,VALID,92.5397,VALID,0,VALID,23.0769,VALID,230,VALID,0,
2010-02-17, 03:54:05,VALID,1001.04,VALID,0,VALID,92.4252,VALID,0,VALID,23.0166,VALID,230,VALID,0,
2010-02-17, 03:55:05,VALID,1001.02,VALID,0,VALID,92.4786,VALID,0,VALID,22.9988,VALID,230,VALID,0,
2010-02-17, 03:56:05,VALID,1001.03,VALID,0,VALID,92.4481,VALID,0,VALID,22.9793,VALID,230,VALID,0,